x

Central Aleutians 230nm Sw Dutch Harbor (46072) Wave Buoy

5:50 - Fri 27th May 2016 All times are UTC.

  • Sig Wave height 8.5ft
  • Swell Direction
  • Peak Period 11s
  • Average Period 8s
  • Wind
    9mph, 11mph gusts
  • Sea Temp 45°f
  • Aire Temp 43°f
  • Sea Pressure 1012.9mb

More Historic Weather Station data

Upgrade to MSW Pro to gain access to the past 30 days of data for over 8000 Wavebouys and Weather Stations around the globe.

Join Pro

Comparision Forecast

View Surf forecast
   
vie 05/27 5:50 8.5ft 11s 8s 9 11 mph 1012.9mb 45f 43f
4:50 9ft 12s 8s 9 11 mph 1012.9mb 45f 44f
3:50 8ft 12s 7s 11 13 mph 1013mb 45f 44f
2:50 9ft 10s 7s 9 13 mph 1013.2mb 45f 44f
1:50 10ft 11s 7s 13 16 mph 1013.3mb 45f 44f
12:50 10ft 11s 7s 13 16 mph 1013.4mb 45f 44f
jue 05/26 10:50 12ft 10s 7s 16 20 mph 1013.3mb 45f 42f
9:50 11ft 11s 7s 18 20 mph 1013.1mb 45f 42f
8:50 11ft 10s 7s 18 22 mph 1012.9mb 45f 42f
7:50 11ft 11s 7s 25 29 mph 1012.4mb 45f 43f
6:50 12ft 11s 7s 25 29 mph 1012.1mb 45f 43f
5:50 12.5ft 11s 7s 27 34 mph 1011.9mb 45f 43f
4:50 12ft 11s 7s 29 36 mph 1011.6mb 45f 43f
3:50 12ft 11s 7s 29 36 mph 1011.5mb 45f 43f
2:50 12ft 8s 7s 29 36 mph 1011.5mb 45f 43f
1:50 12.5ft 11s 7s 31 38 mph 1011.7mb 45f 43f
12:50 14.5ft 11s 7s 31 36 mph 1011.9mb 45f 42f
11:50 13.5ft 11s 7s 31 38 mph 1012.1mb 45f 42f
10:50 14.5ft 11s 7s 34 38 mph 1012.1mb 45f 42f
9:50 14ft 10s 7s 31 38 mph 1012.5mb 45f 43f
7:50 14ft 11s 7s 34 40 mph 1012.7mb 45f 43f
6:50 14.5ft 11s 8s 34 38 mph 1013.4mb 45f 43f
5:50 15ft 11s 8s 31 38 mph 1013.4mb 45f 43f
4:50 14ft 11s 8s 31 38 mph 1014.1mb 45f 43f
3:50 13ft 11s 7s 31 38 mph 1014.4mb 45f 43f
2:50 14ft 11s 8s 31 36 mph 1015mb 45f 43f
1:50 14ft 9s 7s 27 34 mph 1015.6mb 45f 43f
12:50 12.5ft 7s 7s 29 36 mph 1016mb 45f 43f
mié 05/25 11:50 12.5ft 8s 7s 29 34 mph 1016.7mb 45f 42f
10:50 12ft 8s 7s 29 34 mph 1017.3mb 45f 42f
9:50 11.5ft 8s 7s 31 36 mph 1017.5mb 45f 42f
8:50 11.5ft 8s 7s 27 36 mph 1017.8mb 45f 42f
7:50 11ft 9s 7s 29 36 mph 1017.9mb 45f 42f
6:50 10ft 8s 7s 27 34 mph 1018.3mb 45f 42f
5:50 11ft 7s 6s 27 34 mph 1018.3mb 45f 41f
4:50 10ft 8s 6s 27 34 mph 1018.6mb 45f 42f
3:50 9.5ft 7s 6s 27 31 mph 1018.7mb 45f 41f
2:50 8.5ft 8s 6s 27 34 mph 1018.7mb 45f 41f
1:50 8ft 8s 6s 27 31 mph 1019.4mb 45f 41f
12:50 8ft 6s 6s 25 29 mph 1019.8mb 45f 41f
11:50 7ft 6s 6s 25 31 mph 1020mb 45f 41f
10:50 6ft 6s 5s 27 31 mph 1020.2mb 45f 41f
9:50 6ft 7s 5s 22 29 mph 1021.1mb 45f 42f
8:50 5.5ft 5s 5s 25 27 mph 1021.3mb 45f 42f
7:50 5.5ft 7s 5s 20 25 mph 1022mb 45f 42f
6:50 5.5ft 10s 5s 20 25 mph 1022.2mb 45f 42f
5:50 5ft 10s 5s 18 22 mph 1022.5mb 45f 42f
4:50 5ft 6s 5s 20 25 mph 1022.7mb 45f 42f
3:50 5ft 10s 6s 18 22 mph 1023.2mb 45f 42f
2:50 5ft 10s 6s 20 22 mph 1023.6mb 45f 42f
1:50 5ft 10s 6s 18 22 mph 1024.2mb 45f 42f
12:50 5.5ft 10s 6s 18 22 mph 1024.6mb 45f 42f
mar 05/24 11:50 5.5ft 11s 6s 18 22 mph 1025.1mb 45f 41f
10:50 5ft 10s 6s 18 22 mph 1025.5mb 45f 41f
9:50 5ft 10s 6s 18 22 mph 1025.6mb 45f 41f
8:50 5ft 8s 6s 13 18 mph 1025.8mb 45f 42f
7:50 5ft 8s 7s 11 16 mph 1026mb 45f 41f
6:50 5.5ft 9s 7s 13 16 mph 1026.1mb 45f 41f
5:50 5.5ft 7s 7s 13 18 mph 1025.8mb 45f 41f
4:50 5ft 7s 7s 11 16 mph 1026mb 45f 41f
3:50 5.5ft 10s 7s 11 13 mph 1026mb 45f 41f
2:50 5ft 9s 6s 11 13 mph 1026.3mb 45f 41f
1:50 5ft 9s 6s 11 16 mph 1026.4mb 45f 42f
12:50 6ft 9s 7s 11 16 mph 1026.3mb 45f 42f
11:50 5.5ft 7s 6s 9 11 mph 1026.4mb 45f 43f
10:50 5ft 7s 6s 11 16 mph 1026.4mb 45f 43f
9:50 5ft 8s 6s 13 16 mph 1026.2mb 45f 44f
8:50 5ft 8s 6s 13
mph
1026.4mb 45f 44f
7:50 5ft 8s 6s 11 16 mph 1026.1mb 45f 43f
6:50 4.5ft 7s 6s 13 16 mph 1025.7mb 46f 43f
5:50 4.5ft 8s 6s 13 16 mph 1025.4mb 46f 44f
4:50 4.5ft 9s 6s 13
mph
1025.5mb 45f 44f
3:50 5ft 8s 6s 11 16 mph 1025.4mb 46f 44f
2:50 4.5ft 8s 6s 11 16 mph 1025.4mb 46f 44f
1:50 5ft 9s 6s 13 18 mph 1025.4mb 46f 44f
12:50 5ft 8s 6s 11 13 mph 1025.7mb 46f 43f
lun 05/23 10:50 5ft 8s 6s 13 18 mph 1025.6mb 45f 42f
9:50 5ft 8s 6s 13 18 mph 1025.4mb 45f 43f
8:50 5ft 8s 6s 11 13 mph 1025.3mb 45f 42f
7:50 5ft 8s 7s 16 18 mph 1024.9mb 45f 43f
6:50 5ft 8s 7s 13 16 mph 1024.5mb 45f 43f
5:50 5ft 9s 7s 11 16 mph 1024.1mb 45f 44f
4:50 5.5ft 8s 7s 11 13 mph 1024.1mb 45f 44f
3:50 5ft 8s 6s 13 16 mph 1024.3mb 45f 44f
2:50 6ft 9s 7s 11 13 mph 1023.5mb 45f 44f
1:50 5.5ft 9s 7s 11 13 mph 1023mb 45f 44f
12:50 5.5ft 8s 7s 7 9 mph 1022.5mb 45f 44f
11:50 6ft 9s 7s 4 7 mph 1023mb 45f 44f
10:50 5.5ft 8s  -  4
mph
1023mb 45f 44f
9:50 6ft 8s 7s 4
mph
1022.9mb 45f 44f
8:50 6ft 8s 7s 4 7 mph 1022.6mb 45f 44f
7:50 6ft 9s 7s 4 7 mph 1022.1mb 45f 44f